TimeEDT,TemperatureF,Dew PointF,Humidity,Sea Level PressureIn,VisibilityMPH,Wind Direction,Wind SpeedMPH,Gust SpeedMPH,PrecipitationIn,Events,Conditions,WindDirDegrees,DateUTC
12:53 AM,51.1,42.1,71,29.94,10.0,Calm,Calm,-,N/A,,Clear,0,2013-05-05 04:53:00
1:53 AM,48.0,44.1,86,29.93,10.0,Calm,Calm,-,N/A,,Clear,0,2013-05-05 05:53:00
2:53 AM,46.9,43.0,86,29.91,10.0,Calm,Calm,-,N/A,,Clear,0,2013-05-05 06:53:00
3:53 AM,46.9,43.0,86,29.91,10.0,Calm,Calm,-,N/A,,Clear,0,2013-05-05 07:53:00
4:53 AM,45.0,42.1,90,29.91,10.0,Calm,Calm,-,N/A,,Clear,0,2013-05-05 08:53:00
5:53 AM,45.0,42.1,90,29.91,10.0,Calm,Calm,-,N/A,,Clear,0,2013-05-05 09:53:00
6:53 AM,46.0,43.0,89,29.93,10.0,Calm,Calm,-,N/A,,Clear,0,2013-05-05 10:53:00
7:53 AM,48.0,45.0,89,29.94,10.0,Calm,Calm,-,N/A,,Clear,0,2013-05-05 11:53:00
8:53 AM,55.9,48.9,77,29.94,10.0,Calm,Calm,-,N/A,,Clear,0,2013-05-05 12:53:00
9:53 AM,63.0,46.0,54,29.94,10.0,Calm,Calm,-,N/A,,Clear,0,2013-05-05 13:53:00
10:53 AM,69.1,52.0,54,29.92,10.0,South,9.2,18.4,N/A,,Partly Cloudy,180,2013-05-05 14:53:00
11:53 AM,70.0,55.0,59,29.91,10.0,SSW,15.0,24.2,N/A,,Mostly Cloudy,200,2013-05-05 15:53:00
12:53 PM,70.0,55.9,61,29.89,10.0,SSW,16.1,26.5,N/A,,Overcast,210,2013-05-05 16:53:00
1:53 PM,70.0,59.0,68,29.88,10.0,SSW,18.4,28.8,0.06,,Mostly Cloudy,210,2013-05-05 17:53:00
2:53 PM,73.0,57.0,57,29.86,10.0,WSW,20.7,31.1,N/A,,Mostly Cloudy,240,2013-05-05 18:53:00
3:53 PM,72.0,48.0,43,29.85,10.0,SW,19.6,32.2,N/A,,Clear,220,2013-05-05 19:53:00
4:53 PM,71.1,44.1,38,29.85,10.0,SW,21.9,29.9,N/A,,Clear,230,2013-05-05 20:53:00
5:53 PM,69.1,46.9,45,29.83,10.0,SW,17.3,28.8,N/A,,Clear,220,2013-05-05 21:53:00
6:53 PM,68.0,51.1,55,29.85,10.0,SW,17.3,26.5,N/A,,Clear,220,2013-05-05 22:53:00
7:53 PM,66.0,50.0,56,29.86,10.0,SW,8.1,-,N/A,,Clear,230,2013-05-05 23:53:00
8:53 PM,62.1,42.1,48,29.90,10.0,West,13.8,-,N/A,,Clear,280,2013-05-06 00:53:00
9:53 PM,57.9,42.1,56,29.94,10.0,WNW,8.1,-,N/A,,Clear,290,2013-05-06 01:53:00
10:53 PM,55.9,39.9,55,29.97,10.0,West,6.9,-,N/A,,Clear,280,2013-05-06 02:53:00
11:53 PM,54.0,39.9,59,29.98,10.0,West,8.1,-,N/A,,Clear,280,2013-05-06 03:53:00